#timestamp,LO_Frequency,Hit 
1499943615.7,286046976.6,N
1499943635.5,286046976.6,N
1499943655.3,286046978.7,N
1499943675.2,286046978.3,N
1499943695.0,286046980.4,N
1499943695.9,286046980.4,N
1499943715.8,286046981.7,N
1499943735.6,286046983.3,N
1499943755.4,286046982.8,N
1499943775.3,286046985.1,N
1499943795.1,286046980.6,N
1499943815.8,286046981.2,N
1499943835.7,286046983.1,N
1499943855.5,286046983.1,N
1499943875.4,286046982.9,N
1499943895.2,286046984.8,N
1499943915.0,286046982.6,N
1499943915.9,286046982.6,N
1499943935.8,286046984.7,N
1499943955.6,286046982.5,N
1499943975.4,286046985.1,N
1499943995.3,286046985.2,N
1499944015.1,286046982.3,N
1499944035.9,286046983.2,N
1499944055.7,286046983.0,N
1499944075.5,286046985.1,N
1499944095.4,286046984.0,N
1499944115.2,286046986.5,N
1499944135.0,286046986.8,N
1499944135.9,286046986.8,N
1499944155.8,286046982.2,N
1499944175.6,286046985.1,N
1499944195.5,286046985.2,N
1499944215.3,286046984.4,N
1499944235.1,286046983.8,N
1499944255.9,286046984.1,N
1499944275.7,286046984.5,N
1499944295.5,286046984.8,N
1499944315.4,286046984.4,N
1499944335.2,286046984.2,N
1499944355.0,286046986.4,N
1499944356.0,286046986.4,N
1499944375.8,286046986.6,N
1499944395.6,286046985.9,N
1499944415.5,286046984.6,N
1499944435.3,286046984.6,N
1499944455.1,286046984.7,N
1499944475.9,286046985.2,N
1499944495.7,286046985.2,N
1499944515.5,286046984.7,N
1499944535.4,286046987.6,N
1499944555.2,286046988.0,N
1499944575.1,286046988.4,N
1499944576.0,286046988.4,N
1499944595.8,286046986.1,N
1499944615.6,286046986.6,N
1499944635.5,286046983.7,N
1499944655.3,286046984.7,N
1499944675.1,286046986.4,N
1499944695.9,286046984.5,N
1499944715.7,286046985.1,N
1499944735.6,286046984.3,N
1499944755.4,286046984.8,N
1499944775.2,286046984.4,N
1499944795.1,286046984.4,N
1499944796.0,286046984.4,N
1499944815.8,286046984.3,N
1499944835.6,286046986.8,N
1499944855.5,286046983.7,N
1499944875.3,286046986.0,N
1499944895.2,286046986.0,N
1499944915.9,286046984.4,N
1499944935.7,286046982.5,N
1499944955.6,286046981.1,N
1499944975.4,286046979.5,N
1499944995.2,286046980.4,N
1499945015.1,286046976.1,N
1499945016.0,286046976.1,N
1499945035.8,286046976.9,N
1499945055.7,286046976.1,N
1499945075.5,286046975.1,N
1499945095.3,286046974.1,N
1499945115.2,286046975.2,N
1499945135.9,286046975.3,N
1499945155.7,286046974.3,N
1499945175.6,286046976.5,N
1499945195.4,286046977.2,N
1499945215.2,286046974.7,N
1499945235.1,286046973.7,N
1499945236.0,286046973.7,N
1499945255.8,286046975.5,N
1499945275.7,286046977.0,N
1499945295.5,286046977.1,N
1499945315.3,286046974.2,N
1499945335.2,286046975.1,N
1499945355.0,286046974.2,N
1499945355.9,286046974.2,N
1499945375.8,286046976.6,N
1499945395.6,286046976.3,N
1499945415.4,286046976.4,N
1499945435.3,286046978.3,N
1499945455.1,286046978.0,N
1499945475.8,286046977.9,N
1499945495.7,286046976.1,N
1499945515.5,286046975.4,N
1499945535.4,286046975.4,N
1499945555.2,286046972.8,N
1499945575.0,286046973.3,N
1499945575.9,286046973.3,N
1499945595.8,286046974.8,N
1499945615.6,286046977.1,N
1499945635.4,286046976.7,N
1499945655.3,286046974.2,N
1499945675.1,286046976.6,N
1499945695.9,286046978.8,N
1499945715.7,286046974.9,N
1499945735.5,286046972.8,N
1499945755.4,286046972.5,N
1499945775.2,286046971.8,N
1499945795.0,286046969.9,N
1499945795.9,286046969.9,N
1499945815.8,286046970.0,N
1499945835.6,286046969.5,N
1499945855.5,286046966.6,N
1499945875.3,286046965.8,N
1499945895.1,286046964.5,N
1499945915.9,286046966.4,N
1499945935.7,286046966.6,N
1499945955.5,286046968.8,N
1499945975.4,286046968.6,N
1499945995.2,286046966.3,N
1499946015.1,286046968.0,N
1499946016.0,286046968.0,N
1499946035.8,286046970.2,N
1499946055.6,286046967.2,N
1499946075.5,286046965.3,N
1499946095.3,286046964.7,N
1499946115.1,286046965.4,N
1499946135.9,286046964.6,N
1499946155.7,286046966.6,N
1499946175.6,286046969.2,N
1499946195.4,286046968.9,N
1499946215.2,286046967.7,N
1499946235.1,286046964.7,N
1499946236.0,286046964.7,N
1499946255.8,286046963.5,N
1499946275.6,286046959.7,N
1499946295.5,286046958.7,N
1499946315.3,286046960.0,N
1499946335.2,286046963.0,N
1499946355.9,286046967.5,N
1499946375.7,286046966.8,N
1499946395.6,286046966.5,N
1499946415.4,286046968.7,N
1499946435.2,286046968.8,N
1499946455.1,286046969.1,N
1499946456.0,286046969.1,N
1499946475.8,286046970.7,N
1499946495.7,286046970.6,N
1499946515.5,286046971.5,N
1499946535.3,286046969.3,N
1499946555.2,286046967.9,N
1499946575.0,286046967.3,N
1499946575.9,286046967.3,N
1499946595.7,286046967.0,N
1499946615.6,286046966.9,N
1499946635.4,286046966.8,N
1499946655.3,286046966.1,N
1499946675.1,286046968.7,N
1499946676.0,286046968.7,N
1499946695.8,286046970.4,N
1499946715.7,286046968.7,N
1499946735.5,286046969.0,N
1499946755.3,286046965.4,N
1499946775.2,286046964.5,N
1499946795.0,286046965.5,N
1499946795.9,286046965.5,N
1499946815.8,286046961.3,N
1499946835.6,286046961.5,N
1499946855.4,286046961.9,N
1499946875.3,286046961.6,N
1499946895.1,286046962.8,N
1499946915.8,286046963.1,N
1499946935.7,286046963.0,N
1499946955.5,286046965.1,N
1499946975.4,286046965.0,N
1499946995.2,286046962.9,N
1499947015.0,286046964.1,N
1499947015.9,286046964.1,N
1499947035.8,286046961.4,N
1499947055.6,286046961.8,N
1499947075.4,286046962.7,N
1499947095.3,286046961.2,N
1499947115.1,286046958.7,N
1499947135.9,286046961.1,N
1499947155.7,286046960.6,N
1499947175.5,286046962.7,N
1499947195.4,286046960.2,N
